Regional Weather Roundup
Issued by NWS Bismarck, ND

Home | Current Version | Previous Version | Text Only | Print | Product List | Glossary On
Versions: 1 2 3 4 5 6 7 8 9 10 11 12 13 14 15 16 17 18 19 20 21 22 23 24 25 26 27 28 29 30 31 32 33 34 35 36 37 38 39 40 41 42 43 44 45 46 47 48 49 50
093
ASUS43 KBIS 271602
RWRBIS

NWR BROADCAST TEXT
NATIONAL WEATHER SERVICE BISMARCK ND
1100 AM CDT WED JUL 27 2016

NOTE: "FAIR" INDICATES FEW OR NO CLOUDS BELOW 12,000 FEET WITH NO
SIGNIFICANT WEATHER AND/OR OBSTRUCTIONS TO VISIBILITY.


CITY           SKY/WX    TMP DP  RH WIND       PRES   REMARKS
WILLISTON      MOSUNNY   71  57  61 NE3       30.13S
MINOT          CLOUDY    73  60  63 VRB5      30.13F
MINOT AFB      CLOUDY    68  59  73 SE6       30.13F
BISMARCK       SUNNY     73  64  73 VRB5      30.11S
DICKINSON      CLOUDY    65  60  84 E5        30.13S
GARRISON         N/A     71  63  75 SE7       30.13S
HETTINGER ARPT PTSUNNY   68  61  78 E7        30.15S
JAMESTOWN      SUNNY     71  59  65 NE12      30.08S
CARRINGTON     FAIR      70  61  73 NE8       30.13S
HAZEN          PTSUNNY   70  63  78 NE7       30.15R
OAKES            N/A    N/A N/A N/A MISG        N/A
STANLEY        FAIR      70  63  78 E8        30.16F
$$

CITY           SKY/WX    TMP DP  RH WIND       PRES   REMARKS
GRAND FORKS    MOSUNNY   71  59  65 N16       30.06S
GRAND FORKS AF SUNNY     72  59  64 N14G20    30.07S
DEVILS LAKE    PTSUNNY   66  57  72 NE14      30.12F
FARGO          SUNNY     73  57  57 N16       30.03S
CAVALIER       FAIR      68  59  73 N13       30.10R
GRAFTON        FAIR      70  59  68 N13G20    30.10R
GWINNER        FAIR      73  63  68 N14G20    30.05R
LANGDON        FAIR      68  59  73 N10G16    30.13S
ROLLA          PTSUNNY   66  57  72 NE10      30.16F
$$

CITY           SKY/WX    TMP DP  RH WIND       PRES   REMARKS
ABERDEEN       PTSUNNY   71  64  78 N13       30.05R
MOBRIDGE       CLOUDY    71  62  73 N6        30.08S
BUFFALO          N/A     67  62  84 E9        30.08R
RAPID CITY     CLOUDY    72  61  68 NE7       30.09F
GLASGOW        CLOUDY    65  62  90 NE6       30.13S
SIDNEY         MOSUNNY   68  58  70 NE6       30.13S
WOLF POINT     CLOUDY    67  62  84 NE5       30.13S
GLENDIVE       CLOUDY    69  60  73 E13       30.14R
MILES CITY     CLOUDY    66  61  84 N8        30.11S
BAKER          CLOUDY    67  60  78 SE10      30.15R THUNDER
$$

CITY           SKY/WX    TMP DP  RH WIND       PRES   REMARKS
BILLINGS       SUNNY     73  57  57 N8        30.15F
GREAT FALLS    SUNNY     69  54  58 N7        30.20R
$$





USA.gov is the U.S. government's official web portal to all federal, state and local government web resources and services.